This demonstration page uses our WeatherBlox Daily Observations layout. Learn more.

39.92423, -83.80882

Hourly Observations for August 4, 2018

Temp ( °F °C ) Dew Point ( °F °C ) Humidity (%) Winds ( mph kmh ) Pressure ( in mb ) Visibility ( mi km ) Precip ( " mm )
12:56 am 00:56 Mostly Cloudy 68 20 65 18.3 90 90 S 6 9 30.11 1020 10 16.0934 0 0
1:56 am 01:56 Clear 68 20 66 18.9 93 93 Calm 30.1 1019 10 16.0934 0 0
2:56 am 02:56 Clear 66 18.9 66 18.9 100 100 Calm 30.09 1019 9 14.48406 0 0
3:56 am 03:56 Clear 68 20 67 19.4 96 96 SSW 6 9 30.09 1019 10 16.0934 0 0
4:56 am 04:56 Clear 67 19.4 67 19.4 100 100 Calm 30.09 1019 8 12.87472 0 0
5:56 am 05:56 Clear with Mist and Fog 67 19.4 67 19.4 100 100 SW 5 7 30.1 1019 6 9.65604 0 0
6:56 am 06:56 Sunny with Mist and Fog 67 19.4 67 19.4 100 100 SW 3 6 30.12 1020 4 6.43736 0 0
7:56 am 07:56 Sunny with Mist and Fog 70 21.1 70 21.1 100 100 SW 3 6 30.14 1021 5 8.0467 0 0
8:56 am 08:56 Sunny 73 22.8 71 21.7 94 94 SW 5 7 30.16 1021 8 12.87472 0 0
10:56 am 10:56 Sunny 79 26.1 73 22.8 82 82 Calm 30.16 1021 10 16.0934 0 0
11:56 am 11:56 Mostly Sunny 82 27.8 74 23.3 77 77 WSW 5 7 30.16 1021 10 16.0934 0 0
12:29 pm 12:29 Mostly Cloudy 82 28 73 23 74 74 Calm 30.12 1020 10 16.0934 0 0
12:37 pm 12:37 Mostly Sunny 84 29 73 23 70 70 S 3 6 30.12 1020 10 16.0934 0 0
12:56 pm 12:56 Mostly Sunny 84 28.9 73 22.8 70 70 SW 5 7 30.16 1021 10 16.0934 0 0
1:56 pm 13:56 Partly Cloudy 85 29.4 73 22.8 68 68 WSW 7 11 30.14 1021 10 16.0934 0 0
2:41 pm 14:41 Partly Cloudy with Nearby Thunderstorms 84 29 73 23 70 70 SSE 5 7 30.09 1019 10 16.0934 0 0
3:17 pm 15:17 Mostly Sunny 84 29 75 24 74 74 S 7 11 30.09 1019 10 16.0934 0 0
3:40 pm 15:40 Partly Cloudy with Nearby Thunderstorms 81 27 70 21 70 70 SSW 15 24 30.09 1019 10 16.0934 0 0
3:56 pm 15:56 Mostly Sunny 82 27.8 71 21.7 69 69 SSW 7 11 30.13 1020 10 16.0934 0 0
4:04 pm 16:04 Partly Cloudy with Thunderstorms 81 27 70 21 70 70 SSW 5 7 30.09 1019 10 16.0934 0 0
4:29 pm 16:29 Mostly Sunny 79 26 70 21 74 74 NW 6 9 30.12 1020 10 16.0934 0 0
4:56 pm 16:56 Sunny 79 26.1 71 21.7 77 77 Calm 30.13 1020 10 16.0934 0 0
5:56 pm 17:56 Sunny 83 28.3 71 21.7 67 67 S 3 6 30.11 1020 10 16.0934 0 0
6:56 pm 18:56 Sunny 83 28.3 73 22.8 72 72 S 5 7 30.11 1020 10 16.0934 0 0
7:56 pm 19:56 Sunny 79 26.1 72 22.2 79 79 S 5 7 30.12 1020 10 16.0934 0 0
8:56 pm 20:56 Clear 75 23.9 73 22.8 94 94 W 6 9 30.13 1020 10 16.0934 0 0
9:56 pm 21:56 Clear 73 22.8 71 21.7 94 94 Calm 30.14 1021 10 16.0934 0 0
10:56 pm 22:56 Clear 72 22.2 70 21.1 94 94 SW 3 6 30.15 1021 10 16.0934 0 0
11:56 pm 23:56 Clear 72 22.2 68 20 87 87 S 3 6 30.16 1021 10 16.0934 0 0

Powered by AerisWeather